Regional Weather Roundup
Issued by NWS State College, PA

Home | Current Version | Previous Version | Graphics & Text | Print | Product List | Glossary Off
Versions: 1 2 3 4 5 6 7 8 9 10 11 12 13 14 15 16 17 18 19 20 21 22 23 24 25 26 27 28 29 30 31 32 33 34 35 36 37 38 39 40 41 42 43 44 45 46 47 48 49 50

000
ASUS41 KCTP 181303
RWRCTP

REGIONAL WEATHER ROUNDUP
NATIONAL WEATHER SERVICE STATE COLLEGE PA
800 AM EST WED JAN 18 2017

Note: "fair" indicates few or no clouds below 12,000 feet with no
significant weather and/or obstructions to visibility.

* = STATION THAT DOES NOT REPORT PRECIPITATION /E.G. RAIN...SNOW...ETC/
    THUNDER OR FOG.

PAZ002>004-007>009-013>016-020>023-029>032-181400-
WESTERN PENNSYLVANIA

CITY           SKY/WX    TMP DP  RH WIND       PRES   REMARKS
ERIE           CLOUDY    37  35  92 W14G22    29.99R FOG
MEADVILLE      CLOUDY    36  34  92 W9        29.98R
FRANKLIN*        N/A     37  34  87 NW8       29.99R
NEW CASTLE     CLOUDY    39  37  92 W9        30.02R
BEAVER COUNTY  CLOUDY    39  37  93 W9        30.00R
BUTLER*        MOCLDY    39  37  93 W7        30.01S
PITTSBURGH INT LGT RAIN  41  40  96 NW15      30.00R FOG
PITTSBURGH     LGT RAIN  42  38  85 NW10      30.00R FOG
INDIANA*       CLOUDY    43  41  93 NW8       29.99R
LATROBE        LGT RAIN  43  43 100 W9G18     30.00R FOG
WASHINGTON CO* CLOUDY    43  39  87 W9        30.03
$$

PAZ004>006-010>012-017>019-024>028-033>037-041-042-045-046-049>053-181400-
CENTRAL PENNSYLVANIA

CITY           SKY/WX    TMP DP  RH WIND       PRES   REMARKS
BRADFORD       CLOUDY    36  35  96 W14       29.90R
DUBOIS         CLOUDY    39  35  86 W13       29.93R
CLEARFIELD     CLOUDY    42  39  89 W12       29.93R
JOHNSTOWN      LGT RAIN  41  40  96 NW15G22   29.93R FOG
ALTOONA        CLOUDY    45  42  89 W10       29.93R
STATE COLLEGE  DRIZZLE   43  41  93 W13G22    29.92R
WILLIAMSPORT   FOG       37  36  96 CALM      29.92R VSB 1/4
SELINSGROVE    FOG       36  36 100 N3        29.93R VSB 1/4
FT INDIANTOWN  CLOUDY    37  37 100 CALM      29.92R FOG
CAPITAL CITY   FOG       40  38  93 W6        29.93R VSB 1/2
HARRISBURG     FOG       38  38 100 CALM      29.93R VSB 1/2
YORK           CLOUDY    39  39 100 CALM      29.92S FOG
$$

PAZ038>040-043-044-047-048-054-055-060>062-067>071-181400-
EASTERN PENNSYLVANIA

CITY           SKY/WX    TMP DP  RH WIND       PRES   REMARKS
SCRANTON       LGT RAIN  35  35 100 E3        29.90R FOG
MOUNT POCONO   FOG       32  31  96 CALM      29.86R VSB 1/2
ALLENTOWN      CLOUDY    37  34  89 CALM      29.93R
QUAKERTOWN*    CLOUDY    36  36 100 N5        29.92S
READING        LGT RAIN  38  36  92 N3        29.92R
LANCASTER      FOG       39  39 100 CALM      29.92R VSB 1/4
COATESVILLE    CLOUDY    41  41 100 CALM      29.91S FOG
POTTSTOWN      CLOUDY    38  36  92 N3        29.93R FOG
BLUE BELL      CLOUDY    37  37 100 CALM      29.91R
DOYLESTOWN     CLOUDY    38  37  97 N5        29.91R
WILLOW GROVE   NOT AVBL
NORTH PHILA    CLOUDY    41  39  93 N7        29.93R FOG
PHILADELPHIA   CLOUDY    41  38  89 N12       29.92R
$$



USA.gov is the U.S. government's official web portal to all federal, state and local government web resources and services.